Погода Большой Улуй

Погода Большой Улуй : погода сейчас, прогноз погоды и архив. Всё, что Вы хотите узнать о погоде Большой Улуй!

Поиск расширенной информации на нашем сайте:

Другие новости

Новости СМИ2

Главная страница сайта

Новости сайта

03.07.2017

Напоминаем, что на нашем специализированном сайте Метеоцентр.Азия вы можете получить высокодетализированные автоматические прогнозы погоды по пунктам России, СНГ и мира в авиационном формате (включающие направление и скорость ветра, видимость, явления погоды, количество и форму облачности, нижнюю и верхнюю границу облачности).


Погода Большой Улуй - сегодня

Время (UTC), дата Ветер
(°,м/с) 
Видим.   Явления Облачность Т
(°С)
Тd
(°С)
f(%) Тe
(°С)
Pmin
(гПа)
dP
(гПа)
Po
(мм)
O2
(г/м3)
Тmin Tmax R s Состояние
почвы
09 20.02.18 250 (З) 4000 м  слаб. снег  10/0 средняя 
[As trans]
-8.9 -12.3 76 -13  1030.5  -0.2  750  314           
12 20.02.18 250 (З) н/о  слаб. снег  10/0 средняя 
[As trans]
-9.5 -11.1 88 -12  1030.4  -0.1  750  314    -8.8     
15 20.02.18 250 (З) н/о  слаб. снег  10/0 средняя 
[As trans]
-10.1 -11.5 89 -13  1029.6  -0.9  749  315           
18 20.02.18 240 (ЮЗ) н/о  слаб. снег  10/0 средняя 
[As op]
-9.9 -11 92 -12  1028.6  -1  749  314           
21 20.02.18 250 (З) н/о  снег  10/0 средняя 
[As op]
-9.9 -10.8 93 -12  1027.6  -0.9  748  314           
00 21.02.18 250 (З) н/о  слаб. снег  10/0 средняя 
[As op]
-9.9 -10.7 94 -12  1026.9  -0.7  747  314  -10.4    34  равномерный
сухой снег
100% 
03 21.02.18 250 (З) 10 км  слаб. снег  10/0 средняя 
[As trans]
-9.9 -10.9 92 -13  1027.1  0.2  748  314           
06 21.02.18 290 (З) 4000 м  слаб. ливневой снег  9/9 600 м кучево-дожд. 
[Cb cap]
-8.1 -10.1 85 -10  1026.6  -0.3  747  311           
09 21.02.18 310 (СЗ) 4000 м  слаб. ливневой снег  9/9 600 м кучево-дожд. 
[Cb cap]
-7.9 -10.2 83 -9  1026  -0.6  747  311           
12 21.02.18 тихо ()   н/о  дымка{ливн. осадки}  3/3 600 м кучево-дожд. 
[Cb cap]
-12.4 -13.2 94 -12  1026.3  -0.1  747  316    -7.5  0.7     
15 21.02.18 тихо ()   н/о  слаб. снег  10/0 верхняя 
[Cs]
-13.5 -14.5 92 -14  1025.7  -0.7  746  318           
18 21.02.18 160 (Ю) н/о  в посл. час снег  ясно 
-17 -18.5 88 -17  1025.4  -0.7  746  322           
21 21.02.18 160 (Ю) н/о  слаб. снег  10/0 средняя 
[As op]
-19.4 -21.1 86 -20  1025.5  -0.2  746  325           
00 22.02.18 тихо ()   н/о  слаб. снег  10/0 средняя 
[As trans]
-21.8 -23.9 83 -22  1024.8  -1.1  745  328  -21.8    0.0  35  равномерный
сухой снег
100% 
06 22.02.18 070 (В) 20000 м    8/0 верхняя 
[Ci fib]
-12 -13.1 92 -12  1021.5  -0.9  743  314           
09 22.02.18 110 (В) 20000 м    10/0 верхняя 
[Cs]
-7.6 -12.2 70 -10  1019.3  -1.7  742  309           
12 22.02.18 120 (ЮВ) н/о  слаб. снег  10/0 средняя 
[As trans]
-8.6 -11.4 80 -11  1017.7  -1.6  741  309    -7.5  0.0     
15 22.02.18 160 (Ю) н/о  слаб. снег  10/0 средняя 
[As trans]
-9 -10.3 90 -12  1016.1  -1.7  740  309           
18 22.02.18 190 (Ю) н/о  снег  10/0 средняя 
[As trans]
-8.5 -9.2 95 -11  1015.8  -0.3  739  308           
00 23.02.18 260 (З) 5{12}  н/о  позёмок{снег}  6/6 600 м кучево-дожд. 
[Cb cap]
-9.5 -12.7 77 -14  1019.5  2.3  742  311  -9.5    36  равномерный
сухой снег
100% 
09 23.02.18 240 (ЮЗ) 4000 м  слаб. ливневой снег  9/9 600 м кучево-дожд. 
[Cb cap]
-7.8 -12.5 69 -11  1022.8  745  310           
12 23.02.18 220 (ЮЗ) н/о  {ливн. осадки}  9/9 600 м кучево-дожд. 
[Cb cap]
-8.5 -10.5 85 -12  1021.9  -0.9  744  310    -7.7  0.3     
15 23.02.18 230 (ЮЗ) н/о  слаб. ливневой снег  8/8 600 м кучево-дожд. 
[Cb cap]
-8.7 -11.1 83 -12  1020.3  -1.5  743  310           
18 23.02.18 230 (ЮЗ) н/о  {ливн. осадки}  8/4 600 м кучево-дожд., верхняя 
[Cb cap|Ci fib]
-9.4 -10.9 89 -12  1020.1  -0.3  743  311           
21 23.02.18 250 (З) н/о    8/0 средняя 
[Ac trans]
-11.5 -13.5 85 -15  1020.3  743  314           
Время (UTC), дата Ветер
(°,м/с) 
Видим.   Явления Облачность Т
(°С)
Тd
(°С)
f(%) Тe
(°С)
Pmin
(гПа)
dP
(гПа)
Po
(мм)
O2
(г/м3)
Тmin Tmax R s Состояние
почвы

Для получения пояснительной информации подведите курсор к названию столбца.

ПОГОДА Большой Улуй - архив

Всё, что Вы хотите узнать о погоде Большой Улуй - удобно и подробно!

Выберите нужную дату (начиная с 1 января 2015* года) и нажмите кнопку "Найти".
Будут отображены архивные сводки погоды по пункту Большой Улуй, начиная с указанной даты.


Отображать данные в формате CSV (для использования в таблицах Excel)


Внимание! Наш архив погоды предназначен исключительно для личного некоммерческого использования в познавательных целях. Если Вам необходимы официальные справки о состоянии погоды (для производственных, юридических, коммерческих и т.п. целей), обращайтесь в органы Росгидромета.

*Примечание: данная дата относится к архиву по метеостанциям СССР (Россия, СНГ, Балтия).
Архив по метеостанциям Зарубежной Европы и Азии (кроме Китая) хранится 10 дней, по другим регионам земного шара (Китай, Африка, Америка, Австралия, Океания) - 1 день.

Большой Улуй - район местоположения метеостанции


Название, широта, долгота, высота метеостанции:
Большой Улуй 56.6°ш. 90.6°д. 231 м над ур. моря [Российская Федерация]

Дополнительная информация

В oтличие oт бoльшинства пoгoдных сайтoв мы публикуем пoдрoбную метеoинфoрмацию в детальнoм прoфессиoнальнoм фoрмате.

Характеристики температуры и влажнoсти вoздуха измеряются на высoте 2 м в тени вдали oт зданий и деревьев.
Скoрoсть ветра измеряется на высoте 10 м (на урoвне рoста челoвека скoрoсть ветра ниже в 1.5-2 раза). Если метеoстанция нахoдится в гoрoде или в лесу, тo скoрoсть ветра занижена на 2-4 м/с пo сравнению с oткрытым местoм. Скoрoсть ветра над акватoриями крупных рек и oзёр, а также на вершинах хoлмoв на 2-5 м/с выше, чем в oбычных услoвиях.
Атмoсфернoе давление в разных тoчках местнoсти мoжет значительнo oтличаться oт давления на метеoстанции, в зависимoсти oт услoвий рельефа (при пoдъёме на 10 м давление пoнижается примернo на 1 мм рт.ст.).